Simultaneous Nadir Overpasses (SNOs) Predictions

Prediction of SNOs between GOES-17 and LANDSAT-8 Satellite Orbit:

Table of predicted SNOs for the next 14.0 days since TLE Epoch: 9/30/2023
Index Date Time (GOES-17) GOES-17 Lat,Lon LANDSAT-8 Lat,Lon Distance(km) Time Diff (sec)
1 09/30/2023 17:00:37 0.01,-104.71 -0.58,-101.80 330.88 80
2 10/01/2023 05:22:02 -0.01,-104.70 -0.48,-107.00 261.08 80
3 10/03/2023 05:07:10 -0.01,-104.70 0.11,-104.03 75.72 80
4 10/05/2023 04:54:59 -0.00,-104.70 0.79,-101.08 412.44 80
5 10/05/2023 17:16:14 0.00,-104.72 0.33,-106.23 172.18 80
6 10/07/2023 17:06:42 -0.00,-104.72 -0.31,-103.27 165.00 80
7 10/08/2023 05:28:06 0.00,-104.71 -0.79,-108.46 426.04 80
8 10/10/2023 05:15:53 0.00,-104.72 -0.18,-105.49 88.36 80
9 10/12/2023 05:01:00 0.00,-104.73 0.45,-102.53 249.84 80
10 10/12/2023 17:22:15 -0.00,-104.74 0.60,-107.69 335.15 80
